Regional Weather Roundup
Issued by NWS

Home | Current Version | Previous Version | Text Only | Print | Product List | Glossary On
Versions: 1 2 3 4 5 6 7 8 9 10 11 12 13 14 15 16 17 18 19 20 21 22 23 24 25 26 27
000
ASPQ40 PGUM 171512
RWRPQ
WEATHER ROUNDUP FOR THE MARIANAS AND MICRONESIA
NATIONAL WEATHER SERVICE TIYAN GU
100 AM CHST WED JAN 18 2017

GUZ001>004-171600-
MARIANA ISLANDS-

CITY           SKY/WX    TMP DP  RH WIND       PRES   REMARKS
GUAM AIRPORT   CLOUDY    77  77 100 NE18G26   29.95F
ANDERSEN AFB   HVY RAIN  75  73  94 NE25G39   29.98S VSB 1
ROTA AIRPORT   NOT AVBL
TINIAN AP      NOT AVBL
SAIPAN AP      LGT RAIN  73  72  94 NE18      30.00S

$$

PMZ161-171600-
REPUBLIC OF PALAU-

CITY           SKY/WX    TMP DP  RH WIND       PRES   REMARKS
KOROR AP       MOCLDY    79  77  94 N3        29.87F
KOROR WSO      PTCLDY    81  75  83 NE5       29.89S

$$

PMZ171>174-171600-
FEDERATED STATES OF MICRONESIA-

CITY           SKY/WX    TMP DP  RH WIND       PRES   REMARKS
YAP AIRPORT    PTCLDY    81  77  89 VRB3      29.89S
CHUUK AP       MOCLDY    82  77  83 VRB6      29.89F HX  91
POHNPEI AP     NOT AVBL
POHNPEI WSO    CLOUDY    77  77 100 S5        29.89F
KOSRAE AP      NOT AVBL

$$

PMZ181-171600-
REPUBLIC OF THE MARSHALL ISLANDS-

CITY           SKY/WX    TMP DP  RH WIND       PRES   REMARKS
KWAJALEIN AP   PTCLDY    81  72  74 E15       29.86F
MAJURO AP      NOT AVBL
MAJURO WSO     CLOUDY    82  75  78 NE14      29.81F

$$





USA.gov is the U.S. government's official web portal to all federal, state and local government web resources and services.